User: anonymous   Login
Location: Unspecified
(0.0000°N, 0.0000°E)
Time: 21:48:10
(UTC+00:00)
Language:

COSMOS 2451 - Orbit

View from above orbital plane
View from above orbital plane
View from above satellite
View from above satellite

Ground track
Ground track

The orbit data is extracted from the following two-line orbital elements,

1 35498U 09036A   17117.72696209 +.00000031 +00000-0 +15519-3 0  9993
2 35498 082.4932 003.1252 0005909 267.2610 092.7795 12.40814847353783
Epoch (UTC): 27 April 2017 17:26:49
Eccentricity: 0.0005909
inclination: 82.4932°
perigee height: 1498 km
apogee height: 1508 km
right ascension of ascending node: 3.1252°
argument of perigee: 267.2610°
revolutions per day: 12.40814847
mean anomaly at epoch: 92.7795°
orbit number at epoch: 35378

The dashed part of the orbit path shows where the satellite is in the earth's shadow,  

DLR